sat.trackr.live / text

‹ back to catalog

SITRO-AIS 23

NORAD 61742 · 2024-199H

PAYLOAD ACTIVE UNKNOWN

§ Identity

Operator
Country
CIS
Launch date
2024-11-04
Launch site
VOSTO
Launch vehicle
Mass (kg)
RCS (m²)

External: N2YO · Heavens-Above · Gunter

§ Orbital elements

Epoch: 2026-05-25T03:31:03.175392Z

Period
96.27 min
Inclination
97.3262°
Eccentricity
0.0013429
Mean motion
14.95801124 rev/d
Perigee alt
570.5 km
Apogee alt
589.2 km
Semi-major
6,958.0 km
B*
1.9936e-4
RAAN
344.6871°
Arg perigee
136.7380°
Mean anomaly
223.4900°
Rev number
12,832

§ Raw data

SITRO-AIS 231 61742U 24199H   26145.14656453  .00002176  00000+0  19936-3 0  99932 61742  97.3262 344.6871 0013429 136.7380 223.4900 14.95801124128322

JSON: /api/v1/satellites/61742 · /tle

For live sub-satellite position, see the globe view (requires WebGL).

§ Visibility from observer

Set your observer location to see the next 7 days of passes ≥ 10°. The values pass through the URL so the page stays shareable.

No JS? Fill the form by hand. The geolocation button needs JavaScript.

§ Radio — SatNOGS DB

ModeDescriptionDownlinkUplink
GMSK USP Mode U - GMSK2k4 - USP 401.215 MHz

1 transmitter · refreshed weekly from db.satnogs.org